Погода Сосуново

Погода Сосуново : погода сейчас, прогноз погоды и архив. Всё, что Вы хотите узнать о погоде Сосуново!

Хотите узнать прогноз погоды Сосуново? Тогда Вам сюда: Погода Сосуново

Поиск расширенной информации на нашем сайте:

Другие новости

Новости СМИ2

Главная страница сайта

Новости сайта

03.07.2017

Напоминаем, что на нашем специализированном сайте Метеоцентр.Азия вы можете получить высокодетализированные автоматические прогнозы погоды по пунктам России, СНГ и мира в авиационном формате (включающие направление и скорость ветра, видимость, явления погоды, количество и форму облачности, нижнюю и верхнюю границу облачности).


Погода Сосуново - сегодня

Время (UTC), дата Ветер
(°,м/с) 
Видим.   Явления Облачность Т
(°С)
Тd
(°С)
f(%) Тe
(°С)
Pmin
(гПа)
dP
(гПа)
Po
(мм)
O2
(г/м3)
Тmin Tmax R s Состояние
почвы
21 15.09.17 270 (З) 20000 м    ясно 
+12.9 +9.4 79 +12  1019.3  0.2  764  292  +9.7        влажная 
00 16.09.17 210 (ЮЗ) 20000 м    6/6 1000 м 
[Cu hum]
+17.3 +11.2 67 +20  1020  0.7  765  288           
03 16.09.17 190 (Ю) 20000 м    5/5 600 м 
[Cu hum]
+18.6 +9.5 55 +19  1018.9  -1.1  764  287           
12 16.09.17 230 (ЮЗ) 20000 м    ясно 
+10.6 +8.9 89 +9  1018.7  0.9  764  295           
15 16.09.17 230 (ЮЗ) 20000 м    ясно 
+9.5 +7.9 90 +9  1017.9  -0.7  763  296           
18 16.09.17 230 (ЮЗ) 20000 м    ясно 
+7.6 +6.3 91 +6  1017.9  763  298           
00 17.09.17 200 (Ю) 20000 м    8/3 600 м верхняя 
[Cu hum|Ci]
+15.1 +11.2 78 +17  1018.4  -0.2  764  289           
03 17.09.17 210 (ЮЗ) 20000 м    8/8 300 м 
[St]
+14.7 +12.6 87 +19  1017.7  -0.7  763  289           
06 17.09.17 220 (ЮЗ) 4{10}  20000 м    10/3 600 м кучево-дожд., верхняя 
[Cb cap|Cs]
+15.9 +13.2 84 +21  1016.5  -1.2  762  288           
12 17.09.17 230 (ЮЗ) 20000 м    9/9 600 м 
[Sc]
+15.9 +13.7 87 +23  1015.1  -0.4  761  287           
15 17.09.17 030 (СВ) 20000 м    10/0 средняя 
[As op]
+13.4 +12 91 +18  1013.2  -1.9  760  289           
18 17.09.17 220 (ЮЗ) 20000 м    10/0 средняя 
[As op]
+13.2 +12 92 +18  1010.1  -3  757  289           
00 18.09.17 020 (С) 8-12{12}  10 км  дождь  10/10 300 м 
[Frnb|Ns]
+13.9 +12.4 91 +17  1004.1  -4  753  286           
12 18.09.17 260 (З) 4000 м  дождь  10/10 300 м 
[Frnb|Ns]
+11 +8.9 87 +10  995.2  0.4  746  287           
15 18.09.17 230 (ЮЗ) 10 км  слаб. дождь  10/10 300 м 
[Frnb|Ns]
+10.6 +8.7 88 +10  994.7  -0.5  746  288           
18 18.09.17 240 (ЮЗ) 10 км  {дождь}  10/10 300 м 
[Sc]
+9.9 +8.8 93 +10  993.9  -0.8  745  288           
21 18.09.17 220 (ЮЗ) 20000 м    9/9 600 м 
[Sc]
+9.6 +8.5 93 +8  994.1  0.2  745  289  +9.4      влажная 
00 19.09.17 230 (ЮЗ) 20000 м    10/10 600 м 
[Sc]
+13.2 +10.9 86 +15  994.7  0.6  746  285           
03 19.09.17 280 (З) 20000 м    8/8 600 м 
[Sc]
+19.8 +8 46 +20  995.3  0.6  746  279           
06 19.09.17 250 (З) 4{10}  20000 м    6/6 600 м 
[Sc]
+20.1 +8 46 +20  995.9  0.6  747  279           
12 19.09.17 250 (З) 20000 м    ясно 
+11.3 +9.8 90 +12  999.7  1.7  749  288           
15 19.09.17 230 (ЮЗ) 20000 м    4/4 600 м 
[Sc]
+11.1 +9.7 91 +12  1000.5  0.8  750  289           
18 19.09.17 250 (З) н/о    н/о 
+11.6 +9.5 87 +12  1000.4  0.1  750  288           
21 19.09.17 280 (З) 20000 м    6/6 600 м 
[Sc]
+13 +7.6 70 +13  1001.1  0.7  751  287  +9        влажная 
00 20.09.17 230 (ЮЗ) 3{11}  20000 м    9/9 1000 м 
[Sc]
+16.7 +7.7 55 +17  1002.2  1.2  751  284           
Время (UTC), дата Ветер
(°,м/с) 
Видим.   Явления Облачность Т
(°С)
Тd
(°С)
f(%) Тe
(°С)
Pmin
(гПа)
dP
(гПа)
Po
(мм)
O2
(г/м3)
Тmin Tmax R s Состояние
почвы

Для получения пояснительной информации подведите курсор к названию столбца.

ПОГОДА Сосуново - архив

Всё, что Вы хотите узнать о погоде Сосуново - удобно и подробно!

Выберите нужную дату (начиная с 1 января 2015* года) и нажмите кнопку "Найти".
Будут отображены архивные сводки погоды по пункту Сосуново, начиная с указанной даты.


Отображать данные в формате CSV (для использования в таблицах Excel)


Внимание! Наш архив погоды предназначен исключительно для личного некоммерческого использования в познавательных целях. Если Вам необходимы официальные справки о состоянии погоды (для производственных, юридических, коммерческих и т.п. целей), обращайтесь в органы Росгидромета.

*Примечание: данная дата относится к архиву по метеостанциям СССР (Россия, СНГ, Балтия).
Архив по метеостанциям Зарубежной Европы и Азии (кроме Китая) хранится 10 дней, по другим регионам земного шара (Китай, Африка, Америка, Австралия, Океания) - 1 день.

Сосуново - район местоположения метеостанции


Название, широта, долгота, высота метеостанции:
Сосуново 46.5°ш. 138.3°д. 4 м над ур. моря [Российская Федерация]

Дополнительная информация

В oтличие oт бoльшинства пoгoдных сайтoв мы публикуем пoдрoбную метеoинфoрмацию в детальнoм прoфессиoнальнoм фoрмате.

Характеристики температуры и влажнoсти вoздуха измеряются на высoте 2 м в тени вдали oт зданий и деревьев.
Скoрoсть ветра измеряется на высoте 10 м (на урoвне рoста челoвека скoрoсть ветра ниже в 1.5-2 раза). Если метеoстанция нахoдится в гoрoде или в лесу, тo скoрoсть ветра занижена на 2-4 м/с пo сравнению с oткрытым местoм. Скoрoсть ветра над акватoриями крупных рек и oзёр, а также на вершинах хoлмoв на 2-5 м/с выше, чем в oбычных услoвиях.
Атмoсфернoе давление в разных тoчках местнoсти мoжет значительнo oтличаться oт давления на метеoстанции, в зависимoсти oт услoвий рельефа (при пoдъёме на 10 м давление пoнижается примернo на 1 мм рт.ст.).